ONEWEB-0348 (49213 NORAD) Tracking and Keplerian Element Data

This shows tracking and keplerian element data for the satellite.

Feedback or suggestion? Click here.




ElementValue
Catalog49213
NameONEWEB-0348
Epoch Orbit359
Epoch Day287.91667824
Epoch Year2021
RAAN317.5516
Inclination87.2215
Eccentricity0.0020714
Argument of Perigee183.4662
Mean Anonmoly7.2821
Mean Motion14.95014574
Decay Rate-0.01285865
L11 49213U 21083AD 21287.91667824 -.01285865 00000-0 -12691+0 0 9991
L22 49213 87.2215 317.5516 0020714 183.4662 7.2821 14.95014574 3595

Live tracking and technical data element details for ONEWEB-0348 (NORAD 49213). ONEWEB-0348 can be tracked NOW for your location showing map with azimuth and elevation plus other details from your city location.

Track the satellite on the map from your city or location and see movement details for azimuth, elevation, latitude, longitude, range, height, and movement on the map or in text.







IsCatalogInMostPopularTable: catalog: 49213, numindb: 10
Update: records affected: 1



GetName: 49213 ONEWEB-0348

Hit Count: updated at: Tue, 19 Oct 2021 07:56:40 GMT